GW3736 Weather Reports


time (UTC)temp
C
wind
direction
speed
KPH
gust
KPH
rain 1hr
cm
rain 24hr
cm
rain mn
cm
humidity
%
barometer
mb
20260831201555 25 145 11.3 17.7 0.00 0.10 0.05 82 1012.1
20260831200531 25 148 8.0 14.5 0.00 0.10 0.05 83 1012.5
20260831195609 25 149 4.8 11.3 0.00 0.10 0.05 83 1012.6
20260831194524 24 149 4.8 6.4 0.00 0.10 0.05 83 1012.8
20260831193520 24 149 1.6 9.7 0.00 0.10 0.05 83 1012.7
20260831192516 24 149 3.2 6.4 0.00 0.10 0.05 83 1012.6
20260831191532 24 149 3.2 9.7 0.00 0.10 0.05 83 1012.7
20260831190528 24 150 3.2 4.8 0.00 0.10 0.05 82 1012.4
20260831185524 24 150 1.6 4.8 0.00 0.10 0.05 81 1013.1
20260831184521 25 151 3.2 9.7 0.00 0.10 0.05 81 1013.1
20260831183517 25 151 3.2 4.8 0.00 0.10 0.05 83 1012.7
20260831182535 25 151 3.2 4.8 0.00 0.10 0.05 83 1012.6
20260831181550 25 151 3.2 6.4 0.00 0.10 0.05 83 1012.3
20260831180545 24 152 1.6 3.2 0.05 0.10 0.05 83 1012.6
20260831175521 25 152 3.2 4.8 0.05 0.10 0.05 83 1012.5
20260831174539 25 154 1.6 3.2 0.05 0.10 0.05 82 1012.8
20260831173533 24 155 0.0 3.2 0.05 0.15 0.05 82 1012.5
20260831172530 25 155 0.0 1.6 0.05 0.15 0.05 80 1012.4
20260831171526 25 156 3.2 4.8 0.05 0.15 0.05 79 1012.5
20260831170542 25 159 0.0 1.6 0.00 0.10 0.00 79 1013.2
20260831165518 25 192 3.2 6.4 0.00 0.13 0.00 79 1013.6
20260831164535 25 184 3.2 9.7 0.00 0.18 0.00 81 1013.8
20260831163552 25 183 4.8 6.4 0.00 0.18 0.00 84 1013.6
20260831162527 25 178 3.2 9.7 0.00 0.20 0.00 85 1013.4
20260831161543 25 180 3.2 6.4 0.00 0.25 0.00 86 1013.4
20260831160541 24 174 3.2 6.4 0.00 0.25 0.00 87 1013.4
20260831155515 23 161 3.2 4.8 0.00 0.25 0.00 88 1013.4
20260831154532 23 173 3.2 6.4 0.00 0.28 0.00 88 1013.4
20260831153528 23 157 1.6 4.8 0.00 0.28 0.00 88 1013.3
20260831152524 23 157 1.6 1.6 0.00 0.28 0.00 88 1013.0
20260831151520 22 154 3.2 4.8 0.00 0.30 0.00 88 1013.0
20260831150516 22 152 1.6 4.8 0.00 0.33 0.00 88 1013.0
20260831145532 22 0.0 0.0 0.00 0.33 0.00 88 1013.0
20260831144528 22 152 1.6 3.2 0.00 0.36 0.00 88 1013.0
20260831143524 22 152 1.6 3.2 0.00 0.38 0.00 88 1012.9
20260831142601 22 152 1.6 4.8 0.00 0.38 0.00 88 1012.7
20260831141516 22 152 3.2 4.8 0.00 0.43 0.00 88 1012.7
20260831140533 22 155 1.6 4.8 0.00 0.48 0.00 88 1012.8
20260831135549 22 153 3.2 4.8 0.00 0.51 0.00 88 1012.5
20260831134525 22 157 1.6 4.8 0.00 0.53 0.00 88 1012.8
20260831133521 22 154 3.2 6.4 0.00 0.58 0.00 88 1012.6
20260831132519 22 156 4.8 9.7 0.00 0.64 0.00 88 1012.5
20260831131534 22 155 4.8 11.3 0.00 0.71 0.00 88 1012.5
20260831130530 22 152 3.2 6.4 0.00 0.74 0.00 88 1012.3
20260831125526 22 152 1.6 3.2 0.00 0.76 0.00 88 1012.3
20260831124522 22 155 3.2 4.8 0.00 0.79 0.00 88 1012.3
20260831123520 21 156 1.6 3.2 0.00 0.79 0.00 88 1012.5
20260831122535 21 156 1.6 3.2 0.00 0.79 0.00 88 1012.5
20260831121530 21 156 1.6 1.6 0.00 0.81 0.00 88 1012.5
20260831120527 21 156 0.0 1.6 0.00 0.81 0.00 88 1012.6
20260831115524 21 156 0.0 1.6 0.00 0.81 0.00 88 1012.6
20260831114519 21 156 1.6 3.2 0.00 0.81 0.00 88 1012.6
20260831113515 21 156 1.6 3.2 0.00 0.81 0.00 88 1012.6
20260831112532 21 156 0.0 1.6 0.00 0.81 0.00 88 1012.7
20260831111527 21 156 0.0 1.6 0.00 0.81 0.00 88 1012.5
20260831110525 21 0.0 0.0 0.00 0.81 0.00 87 1012.5
20260831105520 21 0.0 0.0 0.00 0.81 0.00 87 1012.6
20260831104518 21 0.0 0.0 0.00 0.84 0.00 87 1012.6
20260831103532 21 0.0 0.0 0.00 0.84 0.00 87 1012.4
20260831102528 21 0.0 0.0 0.00 0.86 0.00 87 1012.4
20260831101525 21 156 1.6 3.2 0.00 0.86 0.00 87 1012.4
20260831100523 21 156 0.0 1.6 0.00 0.89 0.00 87 1012.4
20260831095517 21 0.0 0.0 0.00 0.89 0.00 87 1012.4
20260831094553 21 156 1.6 3.2 0.00 0.94 0.00 87 1012.3
20260831093529 21 156 0.0 1.6 0.00 0.94 0.00 87 1012.5
20260831092547 21 156 0.0 1.6 0.00 0.94 0.00 86 1012.5
20260831091522 21 0.0 0.0 0.00 0.94 0.00 86 1012.6
20260831090518 21 0.0 0.0 0.00 0.94 0.00 86 1012.5
20260831085534 21 0.0 0.0 0.00 0.94 0.00 86 1012.3
20260831084530 21 0.0 0.0 0.00 0.94 0.00 86 1012.2
20260831083548 21 0.0 0.0 0.00 0.94 0.00 86 1012.0
20260831082524 21 0.0 0.0 0.00 0.97 0.00 86 1012.1
20260831081601 21 0.0 0.0 0.00 0.97 0.00 86 1012.2
20260831080535 21 156 0.0 1.6 0.00 0.97 0.00 86 1012.2
20260831075531 21 156 0.0 1.6 0.00 0.97 0.00 86 1012.2
20260831074527 21 0.0 0.0 0.00 0.97 0.00 86 1012.3
20260831073543 21 0.0 0.0 0.00 0.97 0.00 86 1012.4
20260831072519 21 0.0 0.0 0.00 0.97 0.00 86 1012.5
20260831071517 21 0.0 0.0 0.00 0.97 0.00 86 1012.5
20260831070532 21 156 0.0 1.6 0.00 0.97 0.00 86 1012.7
20260831065528 21 156 0.0 3.2 0.00 0.97 0.00 86 1012.7
20260831064524 21 156 0.0 3.2 0.00 0.97 0.00 86 1012.6
20260831063520 21 156 1.6 3.2 0.00 0.97 0.00 86 1012.7
20260831062516 21 156 1.6 3.2 0.00 0.97 0.00 86 1012.8
20260831061532 21 156 3.2 4.8 0.00 0.97 0.00 86 1012.7
20260831060528 21 155 1.6 3.2 0.00 0.97 0.00 86 1012.8
20260831055606 21 155 0.0 3.2 0.00 0.97 0.00 86 1013.0
20260831054520 21 0.0 0.0 0.00 0.97 0.00 86 1013.1
20260831053557 21 155 0.0 1.6 0.00 0.97 0.00 86 1013.1
20260831052533 21 154 0.0 3.2 0.00 0.97 0.00 86 1013.1
20260831051531 21 156 1.6 3.2 0.00 0.97 0.00 86 1013.0
20260831050525 21 158 1.6 6.4 0.00 0.97 0.00 86 1013.1
20260831045522 21 156 0.0 3.2 0.00 0.97 0.00 86 1013.1
20260831044517 21 156 1.6 4.8 0.00 0.97 0.00 86 1013.1
20260831043533 21 155 1.6 3.2 0.00 0.97 0.00 86 1013.1
20260831042529 22 149 0.0 3.2 0.00 0.97 0.00 86 1013.0
20260831041606 22 138 1.6 3.2 0.00 0.97 0.00 87 1013.1
20260831040520 22 130 1.6 4.8 0.00 0.97 0.00 87 1013.0
20260831035516 22 132 3.2 9.7 0.00 0.97 0.97 87 1013.0
20260831034533 22 130 3.2 6.4 0.00 0.97 0.97 87 1013.0
20260831033528 22 129 3.2 6.4 0.00 0.97 0.97 87 1013.0
20260831032524 22 130 4.8 6.4 0.00 0.97 0.97 87 1013.1
20260831031521 22 131 4.8 9.7 0.00 0.97 0.97 87 1013.1
20260831030517 22 129 4.8 11.3 0.00 0.97 0.97 87 1013.0
20260831025533 22 130 6.4 12.9 0.00 0.97 0.97 87 1012.9
20260831024530 22 129 4.8 11.3 0.00 0.97 0.97 88 1013.1
20260831023525 22 127 4.8 9.7 0.00 0.97 0.97 88 1013.0
20260831022521 22 125 6.4 14.5 0.00 0.97 0.97 88 1013.0
20260831021517 22 127 6.4 14.5 0.00 0.97 0.97 88 1013.0
20260831020534 21 128 8.0 14.5 0.00 0.97 0.97 88 1012.9
20260831015530 21 127 6.4 12.9 0.00 0.97 0.97 88 1013.0
20260831014526 21 127 6.4 12.9 0.00 0.97 0.97 88 1013.0
20260831013542 21 127 6.4 14.5 0.00 0.97 0.97 88 1012.9
20260831012519 21 127 6.4 14.5 0.00 0.97 0.97 88 1013.0
20260831011534 21 128 6.4 9.7 0.00 0.97 0.97 88 1013.0
20260831010530 21 123 6.4 12.9 0.00 0.97 0.97 88 1013.0
20260831005527 21 125 6.4 14.5 0.00 0.97 0.97 88 1013.0
20260831004524 21 124 8.0 16.1 0.00 0.97 0.97 88 1012.9
20260831003520 21 129 6.4 12.9 0.00 0.97 0.97 88 1012.7
20260831002535 21 127 6.4 16.1 0.00 0.97 0.97 88 1012.6
20260831001531 21 128 8.0 16.1 0.00 0.97 0.97 87 1012.7
20260831000549 21 129 6.4 16.1 0.00 0.97 0.97 87 1012.7
20260830235523 21 128 6.4 12.9 0.00 0.97 0.97 87 1012.8
20260830234520 21 127 8.0 16.1 0.00 0.97 0.97 87 1013.1
20260830233516 21 130 4.8 11.3 0.00 0.97 0.97 87 1013.4
20260830232532 21 129 6.4 12.9 0.00 0.97 0.97 87 1013.7
20260830231528 21 129 3.2 9.7 0.00 0.97 0.97 87 1013.9
20260830230524 21 128 3.2 6.4 0.00 0.97 0.97 87 1014.0
20260830225541 21 126 4.8 9.7 0.00 0.97 0.97 87 1014.1
20260830224517 21 127 4.8 11.3 0.03 0.97 0.97 86 1014.2
20260830223556 21 130 4.8 9.7 0.03 0.97 0.97 86 1014.0
20260830222529 21 129 6.4 11.3 0.03 0.97 0.97 86 1013.8
20260830221525 21 129 4.8 14.5 0.03 0.97 0.97 86 1013.7
20260830220521 22 133 3.2 6.4 0.05 0.97 0.97 86 1013.7
20260830215519 22 128 4.8 12.9 0.05 0.97 0.97 86 1013.6
20260830214533 22 130 3.2 6.4 0.03 0.94 0.94 86 1013.6
20260830213550 22 130 3.2 12.9 0.03 0.94 0.94 86 1013.3
20260830212525 22 129 4.8 9.7 0.03 0.94 0.94 86 1013.2
20260830211522 22 127 6.4 12.9 0.03 0.94 0.94 86 1013.2
20260830210518 22 128 6.4 11.3 0.00 0.94 0.94 86 1013.2
20260830205534 22 125 6.4 14.5 0.00 0.94 0.94 86 1013.3
20260830204550 22 127 6.4 12.9 0.00 0.94 0.94 86 1013.4
20260830203526 22 127 6.4 11.3 0.00 0.94 0.94 87 1013.4
20260830202522 21 130 4.8 11.3 0.00 0.94 0.94 87 1013.4